Location: Malvern Link
(52.1333°N, 2.3000°W)
Time: 18:19:06
(UTC+00:00)

DIWATA 2B (PO-101) - Pass Details

Date: 03 July 2022
Orbit: 583 x 599 km, 98.0° (Epoch: 19 August)

Event Time Altitude Azimuth Distance (km) Brightness Sun altitude
Rises 00:19:06 0° 115° (ESE) 2,843 ? -14.9°
Reaches altitude 10° 00:21:57 10° 94° (E) 1,946 ? -14.9°
Maximum altitude 00:24:32 16° 57° (ENE) 1,592 ? -14.9°
Drops below altitude 10° 00:27:06 10° 19° (NNE) 1,954 ? -14.8°
Sets 00:29:59 0° 358° (N) 2,861 ? -14.8°
